Погода в Райчихинске

Россия / Амурская область     49°47′38″N   129°24′40″E
темп.,
°C
ветер,
м/с
пор.,
м/с
влажн.,
%
обл.,
%
осадки,
мм/ч
давл.,
гПа
погр.,
м
28 ноября, вс
вс2800:00−16юв2399100 0.0 103047
03:00−16юв2598100 0.0 102873
06:00−18юв2210098 0.0 102721
09:00−13ююв2393100 0.0 102659
12:00−7юз3493100 0.1 1023311
15:00−7з3692100 0.1 1022434
18:00−13зсз3597100 0.0 102360
21:00−13сз3796100 0.0 1022135
29 ноября, пн
пн2900:00−16сз3598100 0.0 102273
03:00−11сз3995100 0.2 1021361
06:00−10сз6119297 0.3 1022447
09:00−14сз511915 0.3 1024270
12:00−12сз59815 0.0 1025408
15:00−13зсз48885 0.0 1026299
18:00−22зсз2210067 0.0 102811
21:00−23зсз00100100 0.0 10289
30 ноября, вт
вт3000:00−22юв1199100 0.0 102711
03:00−22вюв1199100 0.0 102514
06:00−22вюв1199100 0.0 102414
09:00−18юв239686 0.0 102369
12:00−14вюв219080 0.0 1021144
15:00−12ссв129482 0.0 1019129
18:00−16с3597100 0.0 101958
21:00−16ссз41095100 0.0 1018167
1 декабря, ср
ср100:00−17ссз6149394 0.0 1017251
03:00−17ссз7169092 0.0 1015350
06:00−18ссз7188335 0.0 1014404
09:00−19ссз7178660 0.0 1013386
12:00−15сз817810 0.0 1010535
15:00−15сз817814 0.0 1008561
18:00−16сз615845 0.0 1008407
21:00−18сз614875 0.0 1006252
2 декабря, чт
чт200:00−22зсз49925 0.0 1005108
03:00−23зсз48905 0.0 1004100
06:00−26сз349244 0.0 100442
09:00−24зсз36895 0.0 100491
12:00−17сз46795 0.0 1003243
15:00−16зсз378892 0.0 1003265
18:00−21з369913 0.0 100566
21:00−21зсз499913 0.0 1006105